AA7F Weather Reports


time (UTC)temp
C
wind
direction
speed
KPH
gust
KPH
rain 1hr
cm
rain 24hr
cm
rain mn
cm
humidity
%
barometer
mb
20220524022715 17 47 1.6 3.2 0.00 0.00 0.00 49 1015.8
20220524022214 19 44 1.6 1.6 0.00 0.00 0.00 44 1015.5
20220524021713 18 44 0.0 1.6 0.00 0.00 0.00 43 1015.8
20220524021212 19 38 1.6 1.6 0.00 0.00 0.00 44 1015.8
20220524020710 19 45 0.0 3.2 0.00 0.00 0.00 43 1015.6
20220524020209 19 46 0.0 0.0 0.00 0.00 0.00 41 1015.7
20220524015708 18 46 0.0 1.6 0.00 0.00 0.00 45 1015.8
20220524015208 18 28 1.6 3.2 0.00 0.00 0.00 44 1016.0
20220524014708 19 40 1.6 1.6 0.00 0.00 0.00 44 1015.9
20220524014208 18 43 0.0 3.2 0.00 0.00 0.00 44 1016.1
20220524013708 18 46 0.0 1.6 0.00 0.00 0.00 42 1016.1
20220524013207 18 57 3.2 3.2 0.00 0.00 0.00 45 1015.9
20220524012706 18 50 1.6 3.2 0.00 0.00 0.00 50 1015.9
20220524012205 18 47 1.6 3.2 0.00 0.00 0.00 50 1016.0
20220524011703 17 58 3.2 4.8 0.00 0.00 0.00 52 1015.9
20220524011202 17 54 1.6 3.2 0.00 0.00 0.00 56 1016.3
20220524010700 17 62 3.2 3.2 0.00 0.00 0.00 52 1016.1
20220524010159 17 56 1.6 3.2 0.00 0.00 0.00 48 1016.1
20220524005657 17 54 0.0 3.2 0.00 0.00 0.00 49 1016.3
20220524005156 17 65 1.6 3.2 0.00 0.00 0.00 44 1016.6
20220524004654 17 64 1.6 1.6 0.00 0.00 0.00 48 1016.6
20220524004153 17 65 1.6 3.2 0.00 0.00 0.00 46 1016.7
20220524003651 17 80 1.6 3.2 0.00 0.00 0.00 48 1016.7
20220524003150 17 84 3.2 3.2 0.00 0.00 0.00 51 1016.6
20220524002649 18 59 1.6 1.6 0.00 0.00 0.00 51 1016.8
20220524002148 17 60 0.0 1.6 0.00 0.00 0.00 47 1016.7
20220524001647 17 72 1.6 1.6 0.00 0.00 0.00 51 1016.8
20220524001146 17 56 0.0 1.6 0.00 0.00 0.00 46 1016.8
20220524000644 17 45 1.6 3.2 0.00 0.00 0.00 52 1016.9
20220524000144 17 50 1.6 8.0 0.00 0.00 0.00 44 1016.8
20220523235642 17 268 6.4 11.3 0.00 0.00 0.00 52 1017.1
20220523235140 17 283 6.4 9.7 0.00 0.00 0.00 51 1017.3
20220523234638 17 327 9.7 12.9 0.00 0.00 0.00 54 1016.9
20220523234137 17 287 8.0 12.9 0.00 0.00 0.00 50 1016.9
20220523233635 17 271 8.0 11.3 0.00 0.00 0.00 47 1016.9
20220523233134 18 262 4.8 9.7 0.00 0.00 0.00 49 1016.9
20220523232633 18 253 8.0 11.3 0.00 0.00 0.00 46 1017.0
20220523232132 18 235 8.0 11.3 0.00 0.00 0.00 48 1017.0
20220523231632 18 273 8.0 14.5 0.00 0.00 0.00 47 1017.0
20220523231131 18 274 6.4 11.3 0.00 0.00 0.00 48 1017.0
20220523230630 18 270 9.7 12.9 0.00 0.00 0.00 47 1017.1
20220523230129 18 22 4.8 8.0 0.00 0.00 0.00 52 1017.2
20220523225629 17 310 4.8 9.7 0.00 0.00 0.00 49 1017.1
20220523225128 18 296 8.0 14.5 0.00 0.00 0.00 49 1017.2
20220523224627 18 239 11.3 16.1 0.00 0.00 0.00 46 1017.2
20220523224126 18 251 9.7 12.9 0.00 0.00 0.00 45 1017.3
20220523223625 18 260 9.7 12.9 0.00 0.00 0.00 46 1017.1
20220523223124 18 243 9.7 12.9 0.00 0.00 0.00 44 1017.5
20220523222623 18 277 11.3 16.1 0.00 0.00 0.00 40 1017.6
20220523222122 18 287 9.7 16.1 0.00 0.00 0.00 45 1017.4
20220523221621 18 298 9.7 14.5 0.00 0.00 0.00 47 1017.5
20220523221120 18 259 12.9 14.5 0.00 0.00 0.00 42 1017.6
20220523220618 18 308 11.3 16.1 0.00 0.00 0.00 42 1017.4
20220523220117 18 270 12.9 16.1 0.00 0.00 0.00 40 1017.3
20220523215616 18 258 11.3 14.5 0.00 0.00 0.00 43 1017.6
20220523215114 18 255 11.3 14.5 0.00 0.00 0.00 43 1017.8
20220523214614 18 255 11.3 17.7 0.00 0.00 0.00 41 1017.6
20220523214113 18 294 8.0 16.1 0.00 0.00 0.00 47 1017.5
20220523213611 18 242 12.9 14.5 0.00 0.00 0.00 44 1017.6
20220523213111 18 219 9.7 12.9 0.00 0.00 0.00 44 1017.8
20220523212611 18 330 8.0 9.7 0.00 0.00 0.00 49 1017.5
20220523212110 18 290 8.0 14.5 0.00 0.00 0.00 48 1017.4
20220523211610 18 294 6.4 11.3 0.00 0.00 0.00 48 1017.6
20220523211109 18 299 8.0 11.3 0.00 0.00 0.00 46 1017.6
20220523210610 18 297 6.4 11.3 0.00 0.00 0.00 51 1017.6
20220523210109 18 263 9.7 12.9 0.00 0.00 0.00 52 1017.6
20220523205608 18 293 12.9 16.1 0.00 0.00 0.00 53 1017.7
20220523205107 18 301 9.7 16.1 0.00 0.00 0.00 52 1017.7
20220523204605 18 244 9.7 20.9 0.00 0.00 0.00 51 1017.7
20220523204104 18 265 8.0 11.3 0.00 0.00 0.00 54 1017.7
20220523203603 18 242 8.0 12.9 0.00 0.00 0.00 55 1017.8
20220523203102 18 285 9.7 14.5 0.00 0.00 0.00 54 1017.8
20220523202601 18 262 11.3 12.9 0.00 0.00 0.00 50 1017.8
20220523202100 18 286 6.4 8.0 0.00 0.00 0.00 54 1017.8
20220523201558 19 237 8.0 9.7 0.00 0.00 0.00 53 1018.1
20220523201058 18 269 4.8 11.3 0.00 0.00 0.00 52 1017.9
20220523200556 18 300 4.8 12.9 0.00 0.00 0.00 59 1018.0
20220523200054 18 254 8.0 9.7 0.00 0.00 0.00 59 1018.2
20220523195553 17 312 4.8 9.7 0.00 0.00 0.00 56 1018.2
20220523195052 17 250 4.8 8.0 0.00 0.00 0.00 57 1018.2
20220523194553 17 285 6.4 9.7 0.00 0.00 0.00 58 1018.2
20220523194051 17 271 8.0 12.9 0.00 0.00 0.00 56 1018.6
20220523193551 18 308 4.8 12.9 0.00 0.00 0.00 59 1018.6
20220523193049 18 46 3.2 9.7 0.00 0.00 0.00 55 1018.4
20220523192548 18 311 4.8 9.7 0.00 0.00 0.00 51 1018.6
20220523192047 18 236 6.4 8.0 0.00 0.00 0.00 53 1018.7
20220523191546 18 105 4.8 8.0 0.00 0.00 0.00 52 1018.8
20220523191045 19 125 6.4 8.0 0.00 0.00 0.00 49 1018.8
20220523190543 18 106 4.8 4.8 0.00 0.00 0.00 52 1018.9
20220523190041 18 97 3.2 8.0 0.00 0.00 0.00 55 1018.8
20220523185539 18 143 4.8 9.7 0.00 0.00 0.00 59 1018.6
20220523185038 18 111 4.8 9.7 0.00 0.00 0.00 58 1019.1
20220523184538 17 69 3.2 8.0 0.00 0.00 0.00 61 1019.0
20220523184038 17 145 4.8 11.3 0.00 0.00 0.00 61 1019.0
20220523183538 17 112 6.4 11.3 0.00 0.00 0.00 59 1018.9
20220523183036 16 117 8.0 12.9 0.00 0.00 0.00 58 1019.0
20220523182536 16 104 6.4 9.7 0.00 0.00 0.00 61 1019.1
20220523182035 16 94 4.8 8.0 0.00 0.00 0.00 62 1019.2
20220523181533 16 77 8.0 12.9 0.00 0.00 0.00 60 1019.1
20220523181032 16 84 4.8 9.7 0.00 0.00 0.00 60 1019.4
20220523180530 16 83 8.0 11.3 0.00 0.00 0.00 64 1019.2
20220523180028 15 119 6.4 12.9 0.00 0.00 0.00 61 1019.4
20220523175526 15 136 8.0 11.3 0.00 0.00 0.00 63 1019.4
20220523175025 15 133 4.8 12.9 0.00 0.00 0.00 62 1019.5
20220523174524 15 135 8.0 12.9 0.00 0.00 0.00 65 1019.5
20220523174023 15 111 8.0 12.9 0.00 0.00 0.00 65 1019.6
20220523173522 14 113 11.3 14.5 0.00 0.00 0.00 67 1019.6
20220523173021 15 96 8.0 12.9 0.00 0.00 0.00 67 1019.8
20220523172520 14 79 4.8 12.9 0.00 0.00 0.00 69 1019.7
20220523172020 13 70 12.9 16.1 0.00 0.00 0.00 67 1019.9
20220523171519 13 97 8.0 14.5 0.00 0.00 0.00 69 1019.9
20220523171018 13 95 11.3 17.7 0.00 0.00 0.00 67 1020.0
20220523170516 13 113 8.0 14.5 0.00 0.00 0.00 69 1020.0
20220523170017 12 115 12.9 16.1 0.00 0.00 0.00 68 1020.1
20220523165515 12 57 8.0 11.3 0.00 0.00 0.00 70 1020.0
20220523165013 12 127 11.3 16.1 0.00 0.00 0.00 70 1020.1
20220523164512 12 94 12.9 14.5 0.00 0.00 0.00 70 1020.0
20220523164011 12 100 12.9 17.7 0.00 0.00 0.00 70 1020.1
20220523163509 12 104 12.9 17.7 0.00 0.00 0.00 70 1020.3
20220523163009 11 132 11.3 16.1 0.00 0.00 0.00 72 1020.0
20220523162509 11 131 11.3 17.7 0.00 0.00 0.00 72 1020.0
20220523162007 11 77 12.9 20.9 0.00 0.00 0.00 72 1020.2
20220523161507 11 93 14.5 17.7 0.00 0.00 0.00 72 1020.1
20220523161006 11 110 17.7 20.9 0.00 0.00 0.00 72 1020.3
20220523160505 11 101 16.1 20.9 0.00 0.00 0.00 73 1020.2
20220523160003 11 107 14.5 16.1 0.00 0.00 0.00 72 1020.3
20220523155502 11 130 14.5 16.1 0.00 0.00 0.00 73 1020.3
20220523155001 11 127 14.5 17.7 0.00 0.00 0.00 74 1020.4
20220523154459 11 118 11.3 22.5 0.00 0.00 0.00 75 1020.5
20220523153958 11 119 8.0 16.1 0.00 0.00 0.00 77 1020.4
20220523153458 11 69 14.5 22.5 0.00 0.00 0.00 75 1020.4
20220523152956 11 95 14.5 20.9 0.00 0.00 0.00 76 1020.4
20220523152454 11 104 14.5 20.9 0.00 0.00 0.00 77 1020.5
20220523151953 11 99 12.9 17.7 0.00 0.00 0.00 78 1020.7
20220523151451 10 85 14.5 17.7 0.00 0.00 0.00 79 1020.6
20220523150949 10 98 12.9 17.7 0.00 0.00 0.00 81 1020.7
20220523150448 10 101 11.3 24.1 0.00 0.00 0.00 82 1020.9
20220523145947 10 96 16.1 20.9 0.00 0.00 0.00 82 1021.0
20220523145445 9 128 12.9 16.1 0.00 0.00 0.00 82 1021.0
20220523144944 9 138 12.9 17.7 0.00 0.00 0.00 83 1020.9
20220523144443 8 107 12.9 16.1 0.00 0.00 0.00 85 1021.0
20220523143942 8 90 14.5 16.1 0.00 0.00 0.00 85 1020.6
20220523143441 8 93 12.9 16.1 0.00 0.00 0.00 86 1021.2
20220523142940 8 91 11.3 17.7 0.00 0.00 0.00 87 1021.1
20220523142439 7 138 14.5 20.9 0.00 0.00 0.00 88 1021.0
20220523141938 7 107 12.9 17.7 0.00 0.00 0.00 89 1021.0
20220523141439 7 100 12.9 17.7 0.00 0.00 0.00 89 1021.1
20220523140937 7 89 14.5 17.7 0.00 0.00 0.00 89 1021.3
20220523140436 7 101 14.5 17.7 0.00 0.00 0.00 90 1021.1
20220523135936 6 91 11.3 16.1 0.00 0.00 0.00 90 1021.2
20220523135437 6 84 11.3 16.1 0.00 0.00 0.00 90 1021.2
20220523134935 6 104 12.9 16.1 0.00 0.00 0.00 90 1021.2
20220523134434 6 92 11.3 16.1 0.00 0.00 0.00 91 1021.3
20220523133932 6 110 11.3 14.5 0.00 0.00 0.00 92 1021.3
20220523133432 6 95 11.3 17.7 0.00 0.00 0.00 92 1021.3
20220523132932 6 107 11.3 16.1 0.00 0.00 0.00 93 1021.2
20220523132430 6 93 8.0 14.5 0.00 0.00 0.00 92 1021.2
20220523131930 5 136 8.0 16.1 0.00 0.00 0.00 94 1021.3
20220523131429 5 109 12.9 14.5 0.00 0.00 0.00 94 1021.2
20220523130928 5 127 8.0 14.5 0.00 0.00 0.00 94 1020.9
20220523130427 5 108 11.3 16.1 0.00 0.00 0.00 95 1021.2
20220523125928 5 109 14.5 17.7 0.00 0.00 0.00 95 1021.0
20220523125426 5 112 12.9 17.7 0.00 0.00 0.00 95 1020.9
20220523124925 5 74 8.0 17.7 0.00 0.00 0.00 94 1021.1
20220523124423 5 124 11.3 16.1 0.00 0.00 0.00 94 1020.9
20220523123922 5 104 11.3 16.1 0.00 0.00 0.00 95 1021.2
20220523123421 5 103 12.9 17.7 0.00 0.00 0.00 95 1020.9
20220523122920 5 68 14.5 20.9 0.00 0.00 0.00 95 1021.1
20220523122419 5 109 16.1 20.9 0.00 0.00 0.00 94 1020.9
20220523121918 5 92 11.3 16.1 0.00 0.00 0.00 94 1021.0
20220523121417 5 97 14.5 20.9 0.00 0.00 0.00 94 1020.9
20220523120916 5 87 14.5 17.7 0.00 0.00 0.00 94 1020.9
20220523120414 5 106 16.1 20.9 0.00 0.00 0.00 94 1020.7
20220523115912 5 90 16.1 20.9 0.00 0.00 0.00 94 1020.6
20220523115411 6 104 12.9 17.7 0.00 0.00 0.00 93 1020.6
20220523114910 6 97 11.3 16.1 0.00 0.00 0.00 91 1021.0
20220523114408 6 109 14.5 17.7 0.00 0.00 0.00 91 1020.6
20220523113907 6 97 12.9 22.5 0.00 0.00 0.00 91 1020.9
20220523113406 6 92 14.5 22.5 0.00 0.00 0.00 93 1021.0
20220523112905 6 90 17.7 22.5 0.00 0.00 0.00 93 1020.9
20220523112405 6 82 14.5 22.5 0.00 0.00 0.00 92 1021.0
20220523111903 6 89 19.3 22.5 0.00 0.00 0.00 92 1020.9
20220523111402 6 78 14.5 22.5 0.00 0.00 0.00 92 1020.7
20220523110902 6 99 12.9 22.5 0.00 0.00 0.00 91 1020.7
20220523110401 7 92 12.9 22.5 0.00 0.00 0.00 91 1020.5
20220523105859 6 96 14.5 17.7 0.00 0.00 0.00 91 1020.7
20220523105358 6 96 16.1 20.9 0.00 0.00 0.00 91 1020.7
20220523104857 6 85 12.9 16.1 0.00 0.00 0.00 91 1020.7
20220523104356 6 90 14.5 22.5 0.00 0.00 0.00 91 1020.5
20220523103855 6 109 14.5 22.5 0.00 0.00 0.00 91 1020.7
20220523103354 6 75 14.5 20.9 0.00 0.00 0.00 91 1020.7
20220523102852 6 90 14.5 24.1 0.00 0.00 0.00 91 1020.6
20220523102352 6 81 14.5 20.9 0.00 0.00 0.00 91 1020.7
20220523101851 6 120 11.3 17.7 0.00 0.00 0.00 91 1021.0
20220523101351 7 87 16.1 17.7 0.00 0.00 0.00 89 1020.9
20220523100849 7 69 17.7 20.9 0.00 0.00 0.00 89 1021.0
20220523100350 7 95 17.7 29.0 0.00 0.00 0.00 89 1020.9
20220523095848 7 123 11.3 17.7 0.00 0.00 0.00 90 1020.9
20220523095348 7 148 9.7 17.7 0.00 0.00 0.00 90 1021.0
20220523094847 7 111 16.1 20.9 0.00 0.00 0.00 89 1021.1
20220523094348 7 87 12.9 17.7 0.00 0.00 0.00 89 1021.1
20220523093847 7 69 12.9 14.5 0.00 0.00 0.00 88 1021.2
20220523093346 7 81 11.3 16.1 0.00 0.00 0.00 88 1021.2
20220523092845 7 78 11.3 17.7 0.00 0.00 0.00 87 1021.1
20220523092344 7 106 12.9 14.5 0.00 0.00 0.00 88 1021.3
20220523091843 7 81 8.0 11.3 0.00 0.00 0.00 87 1021.3
20220523091342 7 79 6.4 14.5 0.00 0.00 0.00 87 1021.2
20220523090840 8 86 8.0 11.3 0.00 0.00 0.00 86 1021.3
20220523090339 8 84 9.7 12.9 0.00 0.00 0.00 86 1021.1
20220523085838 8 65 14.5 22.5 0.00 0.00 0.00 86 1021.2
20220523085337 8 123 12.9 20.9 0.00 0.00 0.00 84 1021.1
20220523084835 8 77 11.3 16.1 0.00 0.00 0.00 85 1021.0
20220523084335 8 92 11.3 16.1 0.00 0.00 0.00 85 1021.0
20220523083833 8 88 11.3 16.1 0.00 0.00 0.00 84 1021.2
20220523083333 8 84 9.7 12.9 0.00 0.00 0.00 83 1020.9
20220523082831 8 95 11.3 14.5 0.00 0.00 0.00 83 1021.2
20220523082330 8 92 11.3 17.7 0.00 0.00 0.00 82 1021.0
20220523081829 8 107 11.3 16.1 0.00 0.00 0.00 82 1021.2
20220523081327 8 96 11.3 17.7 0.00 0.00 0.00 82 1021.1
20220523080826 8 97 9.7 12.9 0.00 0.00 0.00 82 1021.1
20220523080325 8 123 4.8 12.9 0.00 0.00 0.00 82 1021.3
20220523075824 9 85 6.4 11.3 0.00 0.00 0.00 81 1021.3
20220523075322 9 65 4.8 9.7 0.00 0.00 0.00 80 1021.2
20220523074821 9 133 4.8 11.3 0.00 0.00 0.00 79 1021.2
20220523074320 10 101 6.4 9.7 0.00 0.00 0.00 78 1021.4
20220523073819 10 83 6.4 12.9 0.00 0.00 0.00 78 1021.1
20220523073317 10 98 8.0 20.9 0.00 0.00 0.00 77 1021.3
20220523072816 10 83 8.0 14.5 0.00 0.00 0.00 76 1021.0
20220523072316 8 87 11.3 14.5 0.00 0.00 0.00 80 1021.0
20220523071815 8 64 4.8 9.7 0.00 0.00 0.00 87 1021.4
20220523071314 10 71 8.0 11.3 0.00 0.00 0.00 76 1021.1
20220523070813 10 84 11.3 14.5 0.00 0.00 0.00 77 1021.2
20220523070311 10 99 8.0 11.3 0.00 0.00 0.00 78 1021.2
20220523065811 10 87 8.0 12.9 0.00 0.00 0.00 77 1021.3
20220523065311 10 81 12.9 14.5 0.00 0.00 0.00 75 1021.1
20220523064810 10 90 14.5 17.7 0.00 0.00 0.00 75 1021.3
20220523064309 10 121 14.5 16.1 0.00 0.00 0.00 76 1021.2
20220523063808 10 82 9.7 16.1 0.00 0.00 0.00 76 1020.9
20220523063307 10 94 9.7 17.7 0.00 0.00 0.00 75 1021.1
20220523062807 11 77 8.0 20.9 0.00 0.00 0.00 73 1021.1
20220523062306 10 94 12.9 16.1 0.00 0.00 0.00 74 1021.3
20220523061806 10 80 14.5 16.1 0.00 0.00 0.00 75 1021.0
20220523061306 10 101 9.7 14.5 0.00 0.00 0.00 76 1021.2
20220523060805 9 88 3.2 8.0 0.00 0.00 0.00 81 1021.3
20220523060304 9 81 1.6 9.7 0.00 0.00 0.00 83 1021.1
20220523055803 8 70 4.8 8.0 0.00 0.00 0.00 86 1021.2
20220523055302 10 77 4.8 8.0 0.00 0.00 0.00 83 1021.0
20220523054801 10 75 4.8 9.7 0.00 0.00 0.00 75 1021.4
20220523054300 10 63 4.8 12.9 0.00 0.00 0.00 77 1021.4
20220523053800 10 53 6.4 9.7 0.00 0.00 0.00 78 1021.4
20220523053259 10 87 6.4 8.0 0.00 0.00 0.00 76 1021.3
20220523052800 10 62 3.2 4.8 0.00 0.00 0.00 76 1021.5
20220523052258 11 74 6.4 8.0 0.00 0.00 0.00 75 1021.5
20220523051757 11 73 4.8 11.3 0.00 0.00 0.00 73 1021.4
20220523051256 11 80 6.4 9.7 0.00 0.00 0.00 74 1021.4
20220523050754 11 71 6.4 9.7 0.00 0.00 0.00 75 1021.5
20220523050254 10 70 8.0 9.7 0.00 0.00 0.00 76 1021.7
20220523045752 10 74 6.4 8.0 0.00 0.00 0.00 77 1021.5
20220523045253 10 58 3.2 4.8 0.00 0.00 0.00 78 1021.2
20220523044751 11 74 1.6 8.0 0.00 0.00 0.00 71 1021.2
20220523044251 11 56 3.2 4.8 0.00 0.00 0.00 70 1021.4
20220523043749 12 54 4.8 8.0 0.00 0.00 0.00 70 1021.2
20220523043248 12 77 6.4 9.7 0.00 0.00 0.00 68 1021.1
20220523042748 11 73 4.8 4.8 0.00 0.00 0.00 69 1021.2
20220523042246 12 69 3.2 4.8 0.00 0.00 0.00 67 1021.0
20220523041745 12 62 3.2 4.8 0.00 0.00 0.00 67 1021.1
20220523041243 12 81 4.8 8.0 0.00 0.00 0.00 67 1021.0
20220523040742 12 64 3.2 4.8 0.00 0.00 0.00 67 1021.1
20220523040240 12 54 3.2 4.8 0.00 0.00 0.00 67 1021.1
20220523035741 12 59 1.6 1.6 0.00 0.00 0.00 67 1020.9
20220523035239 13 66 3.2 3.2 0.00 0.00 0.00 65 1021.0
20220523034738 14 51 0.0 0.0 0.00 0.00 0.00 59 1020.6
20220523034237 14 347 3.2 3.2 0.00 0.00 0.00 57 1020.7
20220523033737 14 357 6.4 8.0 0.00 0.00 0.00 55 1020.6
20220523033236 14 22 3.2 8.0 0.00 0.00 0.00 56 1020.6
20220523032735 14 359 3.2 8.0 0.00 0.00 0.00 57 1020.6
20220523032234 14 40 3.2 9.7 0.00 0.00 0.00 57 1020.7
20220523031732 14 47 1.6 8.0 0.00 0.00 0.00 58 1020.7
20220523031231 15 2 4.8 9.7 0.00 0.00 0.00 57 1020.5
20220523030730 15 38 1.6 8.0 0.00 0.00 0.00 57 1020.7
20220523030229 15 38 4.8 9.7 0.00 0.00 0.00 59 1020.5
20220523025727 15 336 8.0 9.7 0.00 0.00 0.00 55 1020.4
20220523025227 15 338 4.8 8.0 0.00 0.00 0.00 57 1020.6
20220523024725 15 42 4.8 4.8 0.00 0.00 0.00 59 1021.0
20220523024225 15 26 1.6 4.8 0.00 0.00 0.00 63 1020.6
20220523023723 16 10 1.6 4.8 0.00 0.00 0.00 63 1020.6
20220523023222 16 23 1.6 3.2 0.00 0.00 0.00 61 1020.7